Regional Weather Roundup
Issued by NWS

Home | Current Version | Previous Version | Text Only | Print | Product List | Glossary On
Versions: 1 2 3 4 5 6 7 8 9 10 11 12 13 14 15 16 17 18 19 20 21 22 23 24 25 26 27 28 29 30 31 32 33 34 35 36 37 38 39 40 41 42 43 44 45 46 47 48 49 50
000
ASUS43 KLSX 261310
RWRMO

WEATHER SUMMARY FOR MISSOURI
NATIONAL WEATHER SERVICE SPRINGFIELD MO
800 AM CDT FRI AUG 26 2016

NOTE: "FAIR" INDICATES FEW OR NO CLOUDS BELOW 12,000 FEET WITH NO
       SIGNIFICANT WEATHER AND/OR OBSTRUCTIONS TO VISIBILITY.
       CURRENT SKY AND/OR WEATHER CONDITIONS ARE NOT AVAILABLE FOR
       CHILLICOTHE AND FARMINGTON.

MOZ001>031-035>038-043-044-053-054-261400-
...NORTHERN AND WESTERN MISSOURI...

CITY           SKY/WX    TMP DP  RH WIND       PRES   REMARKS
KANSAS CTY INT CLOUDY    68  65  90 E9        30.13R
KANSAS C DTWN  CLOUDY    70  68  93 E9        30.11R
LEE`S SUMMIT   CLOUDY    69  68  96 NE6       30.14R
ST JOSEPH      LGT RAIN  67  65  93 VRB5      30.13S FOG
CHILLICOTHE      N/A     69  66  90 NE5       30.14F
KIRKSVILLE     CLOUDY    67  65  93 NE3       30.16R

$$
MOZ066>068-077>081-088>096-101>105-261400-
...SOUTHWEST MISSOURI...

CITY           SKY/WX    TMP DP  RH WIND       PRES   REMARKS
SPRINGFIELD    CLOUDY    73  68  84 S3        30.13S
JOPLIN         PTSUNNY   72  69  90 CALM      30.12R
BRANSON        PTSUNNY   72  68  88 CALM      30.15R

$$
MOZ032>034-039>042-045>050-055>058-069>072-261400-
...CENTRAL MISSOURI...

CITY           SKY/WX    TMP DP  RH WIND       PRES   REMARKS
COLUMBIA       FOG       72  71  97 N6        30.12R VSB 1/4
JEFFERSON CITY CLOUDY    74  72  93 NW5       30.10S FOG
ROLLA          PTSUNNY   72  69  90 S6        30.12R
SEDALIA        CLOUDY    72  69  90 E6        30.13R
WHITEMAN AFB   CLOUDY    70  70 100 VRB5        N/A
OSAGE BEACH    CLOUDY    69  68  96 E3        30.12S

$$
MOZ051-052-059>065-261400-
...EAST CENTRAL MISSOURI...

CITY           SKY/WX    TMP DP  RH WIND       PRES   REMARKS
ST LOUIS INTL  CLOUDY    75  68  78 E6        30.11S
SPIRIT OF STL  CLOUDY    74  73  97 E3        30.09S
ST CHARLES     PTSUNNY   73  72  96 NE3       30.10R

$$
MOZ072>076-082>087-097>100-106>115-261400-
...SOUTH CENTRAL AND SOUTHEAST MISSOURI...

CITY           SKY/WX    TMP DP  RH WIND       PRES   REMARKS
CAPE GIRARDEAU SUNNY     78  75  90 CALM      30.10S FOG
FARMINGTON     CLOUDY    75  74  96 S5        30.14R
POPLAR BLUFF   SUNNY     78  75  90 CALM      30.10S FOG
WEST PLAINS      N/A     74  71  91 SE3       30.16R

$$




USA.gov is the U.S. government's official web portal to all federal, state and local government web resources and services.